Regional Weather Roundup
Issued by NWS

Home | Current Version | Previous Version | Text Only | Print | Product List | Glossary Off
Versions: 1 2 3 4 5 6 7 8 9 10 11 12 13 14 15 16 17 18 19 20 21 22 23 24 25 26 27 28 29 30 31 32 33 34 35 36 37 38 39 40 41 42 43 44 45 46 47 48 49 50

000
ASUS43 KFSD 291102
RWRSD

WEATHER ROUNDUP FOR SOUTH DAKOTA
NATIONAL WEATHER SERVICE SIOUX FALLS SD
600 AM CDT SUN MAR 29 2015

NOTE: "FAIR" INDICATES FEW OR NO CLOUDS BELOW 12,000 FEET WITH NO
SIGNIFICANT WEATHER AND/OR OBSTRUCTIONS TO VISIBILITY.


SDZ001>005-009-010-012>017-291200-
NORTHWEST AND NORTH CENTRAL SOUTH DAKOTA

CITY           SKY/WX    TMP DP  RH WIND       PRES   REMARKS
BUFFALO          N/A     40  35  83 NW41G58   29.93R
FAITH            N/A     44  35  70 NW38G51   29.90R
MOBRIDGE       LGT RAIN  43  38  82 NW28G46   29.76R
$$

SDZ012>016-024>037-041>051-057-063-072>074-291200-
SOUTHWEST AND SOUTH CENTRAL SOUTH DAKOTA

CITY           SKY/WX    TMP DP  RH WIND       PRES   REMARKS
RAPID CTY ARPT CLEAR     45  28  51 NW56G75   29.97R
PIERRE         CLOUDY    46  36  68 NW35G48   29.80R
CUSTER         CLEAR     37  21  52 NW23G43   29.99R
ELLSWORTH AFB  DRIZZLE   45  28  53 NW52G64   29.94
PHILIP         CLEAR     47  34  60 NW37G49   29.91R
PINE RIDGE     PTCLDY    46  21  37 W10       30.04R
SPEARFISH      MIX PCPN  41  28  60 W32G40    30.13R
WINNER         FAIR      52  30  43 W38G47    29.83R
$$

SDZ004>011-016>023-039-040-291200-
NORTHEAST SOUTH DAKOTA

CITY           SKY/WX    TMP DP  RH WIND       PRES   REMARKS
ABERDEEN       PTCLDY    46  37  71 W23G32    29.63R
WATERTOWN      CLEAR     44  37  76 W14       29.61S
SISSETON         N/A     46  39  76 W24G35    29.53S
$$

SDZ017-020-022-023-036>040-048>070-291200-
SOUTHEAST SOUTH DAKOTA

CITY           SKY/WX    TMP DP  RH WIND       PRES   REMARKS
SIOUX FALLS    CLEAR     44  37  76 W12       29.70R
HURON          PTCLDY    45  35  68 W13       29.69R
MITCHELL       CLEAR     47  37  68 W12       29.74R
YANKTON        CLEAR     52  39  62 W16G23    29.77R
$$

ABBREVIATIONS USED IN REMARKS
   TC - TEMPERATURE IN CELSIUS
  WCI - WIND CHILL INDEX
   HX - HEAT INDEX
  VSB - VISIBILITY




USA.gov is the U.S. government's official web portal to all federal, state and local government web resources and services.